星链-36130(STARLINK-36130)

导读

STARLINK-36130是美国SpaceX星链星座的一员,星链旨在搭建全球卫星互联网通信网络,为地面提供低延迟高速网络服务。该卫星于2025年12月7日发射,属于低轨卫星,入轨后将和其他星链卫星协同,扩展星座覆盖范围,补充并提升全球卫星通信网络的服务能力。

Basic Information
目录编号:
66931
目录名称:
STARLINK-36130
国际标识:
2025-286G
轨道中心:
EARTH
卫星名称:
星链-36130
卫星全名:
星链-36130(STARLINK-36130)
卫星状态:
在轨 (已飞行271 天)
发射日期:
2025-12-07 UTC
国别 :
美国 (US)
星等 :
--
Orbit Information
数据来源 国际轨道数据
星历时间: 2026-09-03T14:30:15+0800
1天前
查看轨道信息
半长轴: 6840.843km
偏心率: 0.0001782
轨道倾角: 53.160°
近地点辐角 89.455°
升交点赤经 250.177°
平近点角 270.666°
近地点: 461.486km
远地点: 463.926km
周期: 93.848分钟
每日圈数: 15.343991
Detailed Information
固有亮度:
5
最大亮度:
2.5
卫星平台:
Starlink V1.0
覆盖范围:
全球
运营商:
太空探索技术公司
运营商所在国:
美国
制造商(研发单位):
太空探索技术公司
制造商所在国:
美国
使用方式:
暂无
Satellite Introduction
Starlink 计划是 SpaceX 推出的全球卫星互联网项目,通过发射低轨道卫星,为全球尤其是偏远地区提供高速、低延迟的互联网服务。自 2019 年起,Starlink 已部署数千颗卫星,旨在缩小全球数字鸿沟,推动互联网普及。该项目还为军事、航空等行业提供通信支持,带来广泛经济效益。
2D Orbit Map
3D Orbit Map
Orbit Altitude Analysis Chart
Orbit Inclination Analysis Chart
Orbit Comprehensive Analysis Chart
View Comprehensive Chart
Conjunction Data List
Event ID Objects TCA Miss Dist (km) Collision Risk Probability Collision Risk Index (CRI) Action
CDM_260904-020605-313606-693121
2026-09-04T
02:06:01+0000
2.898 km
极远距离
1.245573E-6 低风险 0.37
CDM_260904-084605-198406-693121
2026-09-04T
08:46:45+0000
2.901 km
极远距离
8.887124E-7 极低风险 0.34